When you browse on this site, cookies collect data to enhance your experience and personalize the content and advertising you see.
Visit our Privacy Policy to learn more. By continuing to use the site, you agree to this use of cookies and data.
  • In Schweiz
  • Länderverzeichnis
  • Für 7 Tage
  • Wassertemperatur
  • Wetterkarte
  • Widgets
  • user-avatar
    Anmelden

    Stündliche Wetter Springfield

    Heute, 12 Dezember, Donnerstag

    Zeit Temperatur Niederschläge Wind Luftdruck Luftfeuchtigkeit
    00:00 -9°C° 0 mm 4 m/S 747 mmHg 69%
    01:00 -9°C° 0 mm 3 m/S 748 mmHg 70%
    02:00 -9°C° 0 mm 3 m/S 749 mmHg 70%
    03:00 -10°C° 0 mm 3 m/S 749 mmHg 71%
    04:00 -9°C° 0 mm 2 m/S 750 mmHg 71%
    05:00 -9°C° 0 mm 2 m/S 751 mmHg 73%
    06:00 -9°C° 0 mm 2 m/S 751 mmHg 75%
    07:00 -8°C° 0 mm 1 m/S 752 mmHg 77%
    08:00 -8°C° 0 mm 2 m/S 752 mmHg 72%
    09:00 -7°C° 0 mm 2 m/S 753 mmHg 67%
    10:00 -6°C° 0 mm 2 m/S 753 mmHg 62%
    11:00 -5°C° 0 mm 2 m/S 753 mmHg 60%
    12:00 -5°C° 0 mm 2 m/S 753 mmHg 58%
    13:00 -4°C° 0 mm 2 m/S 753 mmHg 56%
    14:00 -3°C° 0 mm 1 m/S 753 mmHg 62%
    15:00 -3°C° 0 mm 1 m/S 753 mmHg 67%
    16:00 -4°C° 0 mm 1 m/S 753 mmHg 73%
    17:00 -4°C° 0 mm 1 m/S 753 mmHg 75%
    18:00 -4°C° 0 mm 1 m/S 753 mmHg 78%
    19:00 -4°C° 0 mm 1 m/S 753 mmHg 81%
    20:00 -6°C° 0 mm 1 m/S 753 mmHg 81%
    21:00 -6°C° 0 mm 1 m/S 752 mmHg 82%
    22:00 -6°C° 0 mm 1 m/S 752 mmHg 83%
    23:00 -6°C° 0 mm 1 m/S 751 mmHg 81%

    Morgen, 13 Dezember, Freitag

    Zeit Temperatur Niederschläge Wind Luftdruck Luftfeuchtigkeit
    00:00 -6°C° 0 mm 2 m/S 751 mmHg 79%
    01:00 -6°C° 0 mm 2 m/S 751 mmHg 78%
    02:00 -6°C° 0 mm 2 m/S 751 mmHg 79%
    03:00 -4°C° 0 mm 1 m/S 750 mmHg 80%
    04:00 -4°C° 0 mm 1 m/S 750 mmHg 81%
    05:00 -4°C° 0 mm 1 m/S 749 mmHg 83%
    06:00 -4°C° 0 mm 1 m/S 749 mmHg 86%
    07:00 -4°C° 0 mm 1 m/S 749 mmHg 88%
    08:00 -3°C° 0 mm 1 m/S 749 mmHg 87%
    09:00 -1°C° 0 mm 1 m/S 748 mmHg 86%
    10:00 -2°C° 0 mm 2 m/S 748 mmHg 86%
    11:00 -2°C° 0 mm 2 m/S 747 mmHg 88%
    12:00 +1°C° 0 mm 1 m/S 746 mmHg 90%
    13:00 +1°C° 0 mm 1 m/S 746 mmHg 92%
    14:00 +1°C° 0.1 mm 1 m/S 745 mmHg 94%
    15:00 +1°C° 0.1 mm 1 m/S 744 mmHg 96%
    16:00 +1°C° 0.1 mm 1 m/S 744 mmHg 98%
    17:00 +1°C° 0.1 mm 1 m/S 744 mmHg 98%
    18:00 +2°C° 0.1 mm 1 m/S 743 mmHg 98%
    19:00 +2°C° 0.1 mm 1 m/S 743 mmHg 98%
    20:00 +2°C° 0.2 mm 1 m/S 742 mmHg 98%
    21:00 +3°C° 0.2 mm 1 m/S 741 mmHg 98%
    22:00 +3°C° 0.2 mm 1 m/S 741 mmHg 99%
    23:00 +3°C° 0.6 mm 1 m/S 740 mmHg 99%

    übermorgen, 14 Dezember, Samstag

    Zeit Temperatur Niederschläge Wind Luftdruck Luftfeuchtigkeit
    00:00 +3°C° 0.6 mm 1 m/S 739 mmHg 99%
    01:00 +4°C° 0.6 mm 1 m/S 738 mmHg 99%
    02:00 +4°C° 0.5 mm 1 m/S 737 mmHg 99%
    03:00 +4°C° 0.5 mm 1 m/S 736 mmHg 99%
    04:00 +4°C° 0.5 mm 1 m/S 735 mmHg 99%
    05:00 +5°C° 2.1 mm 1 m/S 734 mmHg 99%
    06:00 +4°C° 2.1 mm 2 m/S 733 mmHg 98%
    07:00 +4°C° 2.1 mm 2 m/S 731 mmHg 98%
    08:00 +5°C° 1 mm 2 m/S 730 mmHg 98%
    09:00 +5°C° 1 mm 2 m/S 728 mmHg 98%
    10:00 +5°C° 1 mm 3 m/S 727 mmHg 98%
    11:00 +6°C° 0.4 mm 2 m/S 726 mmHg 98%
    12:00 +7°C° 0.4 mm 1 m/S 724 mmHg 99%
    13:00 +6°C° 0.4 mm 1 m/S 723 mmHg 99%
    14:00 +6°C° 0 mm 1 m/S 722 mmHg 99%
    15:00 +6°C° 0 mm 1 m/S 721 mmHg 99%
    16:00 +5°C° 0 mm 0 m/S 720 mmHg 99%
    17:00 +6°C° 0.7 mm 1 m/S 719 mmHg 99%
    18:00 +6°C° 0.7 mm 1 m/S 719 mmHg 99%
    19:00 +6°C° 0.7 mm 1 m/S 718 mmHg 99%
    20:00 +5°C° 1.2 mm 2 m/S 718 mmHg 98%
    21:00 +5°C° 1.2 mm 2 m/S 717 mmHg 98%
    22:00 +5°C° 1.2 mm 3 m/S 717 mmHg 97%
    23:00 +4°C° 0.2 mm 4 m/S 717 mmHg 95%

    15 Dezember, Sonntag

    Zeit Temperatur Niederschläge Wind Luftdruck Luftfeuchtigkeit
    00:00 +3°C° 0.2 mm 5 m/S 717 mmHg 94%
    01:00 +2°C° 0.2 mm 6 m/S 718 mmHg 92%
    02:00 +2°C° 0.1 mm 6 m/S 718 mmHg 90%
    03:00 +1°C° 0.1 mm 6 m/S 718 mmHg 89%
    04:00 +1°C° 0.1 mm 6 m/S 719 mmHg 88%
    05:00 -1°C° 0 mm 6 m/S 719 mmHg 87%
    06:00 -1°C° 0 mm 6 m/S 720 mmHg 87%
    07:00 -2°C° 0 mm 6 m/S 720 mmHg 86%
    08:00 -1°C° 0 mm 7 m/S 721 mmHg 83%
    09:00 -1°C° 0 mm 7 m/S 722 mmHg 81%
    10:00 0°C° 0 mm 8 m/S 722 mmHg 78%
    11:00 0°C° 0 mm 8 m/S 723 mmHg 78%
    12:00 0°C° 0 mm 8 m/S 724 mmHg 78%
    13:00 0°C° 0 mm 8 m/S 724 mmHg 78%
    14:00 -1°C° 0 mm 7 m/S 725 mmHg 78%
    15:00 -2°C° 0 mm 7 m/S 726 mmHg 78%
    16:00 -3°C° 0 mm 6 m/S 726 mmHg 78%
    17:00 -3°C° 0 mm 6 m/S 727 mmHg 77%
    18:00 -4°C° 0 mm 6 m/S 728 mmHg 76%
    19:00 -6°C° 0 mm 7 m/S 729 mmHg 74%
    20:00 -6°C° 0 mm 6 m/S 730 mmHg 73%
    21:00 -6°C° 0 mm 6 m/S 731 mmHg 73%
    22:00 -8°C° 0 mm 6 m/S 732 mmHg 72%
    23:00 -8°C° 0 mm 6 m/S 733 mmHg 70%

    16 Dezember, Montag

    Zeit Temperatur Niederschläge Wind Luftdruck Luftfeuchtigkeit
    00:00 -9°C° 0 mm 6 m/S 734 mmHg 69%
    01:00 -9°C° 0 mm 6 m/S 735 mmHg 67%
    02:00 -10°C° 0 mm 6 m/S 735 mmHg 65%
    03:00 -10°C° 0 mm 6 m/S 736 mmHg 63%
    04:00 -10°C° 0 mm 6 m/S 737 mmHg 60%
    05:00 -10°C° 0 mm 6 m/S 738 mmHg 59%
    06:00 -10°C° 0 mm 5 m/S 739 mmHg 57%
    07:00 -11°C° 0 mm 5 m/S 740 mmHg 55%
    08:00 -10°C° 0 mm 5 m/S 740 mmHg 51%
    09:00 -8°C° 0 mm 5 m/S 741 mmHg 47%
    10:00 -8°C° 0 mm 5 m/S 742 mmHg 43%
    11:00 -7°C° 0 mm 4 m/S 742 mmHg 41%
    12:00 -7°C° 0 mm 4 m/S 741 mmHg 40%
    13:00 -5°C° 0 mm 4 m/S 741 mmHg 39%
    14:00 -7°C° 0 mm 4 m/S 742 mmHg 42%
    15:00 -6°C° 0 mm 3 m/S 742 mmHg 44%
    16:00 -5°C° 0 mm 2 m/S 742 mmHg 47%
    17:00 -6°C° 0 mm 2 m/S 742 mmHg 50%
    18:00 -6°C° 0 mm 2 m/S 743 mmHg 53%
    19:00 -4°C° 0 mm 1 m/S 743 mmHg 56%
    20:00 -4°C° 0 mm 1 m/S 743 mmHg 56%
    21:00 -5°C° 0 mm 0 m/S 742 mmHg 55%
    22:00 -5°C° 0 mm 0 m/S 742 mmHg 55%
    23:00 -5°C° 0.1 mm 0 m/S 742 mmHg 56%

    17 Dezember, Dienstag

    Zeit Temperatur Niederschläge Wind Luftdruck Luftfeuchtigkeit
    00:00 -5°C° 0.1 mm 0 m/S 741 mmHg 57%
    01:00 -5°C° 0.1 mm 0 m/S 740 mmHg 59%
    02:00 -5°C° 0.3 mm 0 m/S 739 mmHg 63%
    03:00 -5°C° 0.3 mm 0 m/S 739 mmHg 67%
    04:00 -4°C° 0.3 mm 1 m/S 738 mmHg 70%
    05:00 -4°C° 1 mm 1 m/S 737 mmHg 77%
    06:00 -7°C° 1 mm 2 m/S 736 mmHg 85%
    07:00 -7°C° 1 mm 2 m/S 735 mmHg 92%
    08:00 -7°C° 0.7 mm 2 m/S 734 mmHg 92%
    09:00 -7°C° 0.7 mm 2 m/S 733 mmHg 92%
    10:00 -7°C° 0.7 mm 2 m/S 732 mmHg 92%
    11:00 -6°C° 0.9 mm 1 m/S 731 mmHg 92%
    12:00 -4°C° 0.9 mm 1 m/S 729 mmHg 92%
    13:00 -4°C° 0.9 mm 1 m/S 728 mmHg 92%
    14:00 -4°C° 0.7 mm 1 m/S 727 mmHg 93%
    15:00 -3°C° 0.7 mm 1 m/S 727 mmHg 93%
    16:00 -3°C° 0.7 mm 1 m/S 727 mmHg 94%
    17:00 -2°C° 0 mm 1 m/S 727 mmHg 94%
    18:00 -2°C° 0 mm 1 m/S 727 mmHg 94%
    19:00 -1°C° 0 mm 1 m/S 727 mmHg 94%
    20:00 -4°C° 0 mm 2 m/S 728 mmHg 90%
    21:00 -6°C° 0 mm 3 m/S 728 mmHg 86%
    22:00 -8°C° 0 mm 4 m/S 728 mmHg 83%
    23:00 -8°C° 0 mm 3 m/S 728 mmHg 83%
    Mehr zeigen